Watertown, NY

11:04 AM EDT on April 26, 2017 (GMT -0400)
Watertown International

Weather History for KART - July, 2014

Change the Weather History Date:

Tuesday, July 22, 2014

  Actual Average Record
Temperature  
Mean Temperature 72 °F 69 °F  
Max Temperature 85 °F 80 °F 94 °F (1955)
Min Temperature 59 °F 59 °F 46 °F (1969)
Degree Days  
Heating Degree Days 0 1  
Month to date heating degree days 13 23  
Since 1 June heating degree days 75 130  
Since 1 July heating degree days 13 23  
Cooling Degree Days 7 5  
Month to date cooling degree days 105 99  
Year to date cooling degree days 240 172  
Since 1 June cooling degree days 217 161  
Growing Degree Days 22 (Base 50)    
Moisture  
Dew Point 60 °F    
Average Humidity 67    
Maximum Humidity 90    
Minimum Humidity 44    
Precipitation  
Precipitation 0.00 in 0.09 in 0.72 in (1960)
Month to date precipitation 3.49 1.83  
Year to date precipitation 25.00 17.83  
Sea Level Pressure  
Sea Level Pressure 30.05 in    
Wind  
Wind Speed 5 mph (SW)    
Max Wind Speed 14 mph    
Max Gust Speed 17 mph    
Visibility 7 miles    
Events      
T = Trace of Precipitation, MM = Missing Value Source: NWS Daily Summary

Daily Weather History Graph

Daily Weather History Graph

Search for Another Location

Airport or City:

Trip Planner

Search our weather history database for the weather conditions in past years. The results will help you decide how hot, cold, wet, or windy it might be!

Date:

Astronomy

Jul. 22, 2014 Rise Set
Actual Time 5:41 AM EDT 8:38 PM EDT
Civil Twilight 5:07 AM EDT 9:12 PM EDT
Nautical Twilight 4:24 AM EDT 9:56 PM EDT
Astronomical Twilight 3:32 AM EDT 10:47 PM EDT
Moon 2:14 AM EDT (7/22) 5:13 PM EDT (7/22)
Length of Visible Light 16h 05m
Length of Day
14h 56m
Waning Crescent, 16% of the Moon is Illuminated
Jul 22
Waning Crescent
Jul 26
New
Aug 3
First Quarter
Aug 10
Full
Aug 17
Last Quarter

Hourly Weather History & Observations

Time (EDT) Temp. Heat Index Dew Point Humidity Pressure Visibility Wind Dir Wind Speed Gust Speed Precip Events Conditions
12:56 AM 63.0 °F - 57.9 °F 84% 30.10 in 3.0 mi Calm Calm - N/A   Haze
1:29 AM 63.0 °F - 57.9 °F 84% 30.11 in 2.5 mi Calm Calm - N/A   Haze
1:36 AM 63.0 °F - 57.9 °F 84% 30.11 in 3.0 mi Calm Calm - N/A   Haze
1:43 AM 62.1 °F - 57.0 °F 84% 30.11 in 2.5 mi Calm Calm - N/A   Haze
1:56 AM 62.1 °F - 57.0 °F 84% 30.09 in 2.5 mi Calm Calm - N/A   Haze
2:03 AM 62.1 °F - 57.0 °F 84% 30.10 in 3.0 mi Calm Calm - N/A   Haze
2:56 AM 62.1 °F - 57.9 °F 86% 30.09 in 6.0 mi Calm Calm - N/A   Clear
3:56 AM 61.0 °F - 57.0 °F 87% 30.09 in 3.0 mi Calm Calm - N/A   Clear
4:56 AM 60.1 °F - 55.9 °F 86% 30.09 in 4.0 mi Calm Calm - N/A   Clear
5:43 AM 60.1 °F - 55.9 °F 86% 30.11 in 2.0 mi Calm Calm - N/A   Clear
5:56 AM 59.0 °F - 55.0 °F 87% 30.10 in 2.0 mi Calm Calm - N/A   Clear
6:06 AM 60.1 °F - 55.0 °F 83% 30.11 in 1.2 mi Calm Calm - N/A   Haze
6:25 AM 61.0 °F - 55.9 °F 83% 30.11 in 3.0 mi Calm Calm - N/A   Haze
6:56 AM 64.9 °F - 59.0 °F 81% 30.11 in 5.0 mi Calm Calm - N/A   Haze
7:56 AM 71.1 °F - 63.0 °F 75% 30.12 in 7.0 mi Calm Calm - N/A   Clear
8:56 AM 75.9 °F - 64.9 °F 69% 30.13 in 9.0 mi WSW 4.6 mph - N/A   Clear
9:56 AM 78.1 °F - 64.9 °F 64% 30.12 in 10.0 mi West 8.1 mph - N/A   Clear
10:56 AM 80.1 °F 81.2 °F 62.1 °F 54% 30.09 in 10.0 mi SW 6.9 mph - N/A   Clear
11:56 AM 82.0 °F 83.8 °F 64.9 °F 56% 30.07 in 10.0 mi West 8.1 mph - N/A   Clear
1:56 PM 84.0 °F 85.4 °F 64.0 °F 51% 30.04 in 10.0 mi West 10.4 mph - N/A   Clear
2:56 PM 84.0 °F 84.5 °F 62.1 °F 47% 30.02 in 10.0 mi West 10.4 mph - N/A   Clear
3:56 PM 82.9 °F 83.7 °F 62.1 °F 49% 30.01 in 10.0 mi West 11.5 mph - N/A   Clear
4:56 PM 84.0 °F 84.4 °F 61.0 °F 46% 29.99 in 10.0 mi WSW 9.2 mph - N/A   Clear
5:56 PM 84.2 °F 84.4 °F 60.8 °F 45% 29.98 in 10.0 mi SW 9.2 mph - N/A   Clear
6:56 PM 82.0 °F 82.7 °F 61.0 °F 49% 29.96 in 10.0 mi WSW 5.8 mph - N/A   Clear
7:56 PM 79.0 °F - 62.1 °F 56% 29.95 in 10.0 mi South 3.5 mph - N/A   Clear
8:56 PM 75.2 °F - 62.6 °F 65% 29.96 in 10.0 mi South 3.5 mph - N/A   Clear
9:56 PM 73.9 °F - 62.1 °F 66% 29.91 in 10.0 mi South 3.5 mph - N/A   Clear
10:56 PM 73.0 °F - 62.1 °F 68% 29.90 in 10.0 mi West 3.5 mph - N/A   Clear
11:56 PM 73.0 °F - 61.0 °F 66% 29.89 in 10.0 mi South 3.5 mph - N/A   Clear